Miscellaneous Local Product
Issued by NWS North Platte, NE

Home | Current Version | Previous Version | Graphics & Text | Print | Product List | Glossary On
Versions: 1 2 3 4 5 6 7 8 9 10 11 12 13 14 15 16 17 18 19 20 21 22 23 24 25 26 27 28 29 30 31 32 33 34 35 36 37 38 39 40 41 42 43 44 45 46 47 48 49 50
041
AXUS43 KLBF 260710
MISLBF


WESTERN AND NORTH CENTRAL NEBRASKA HOURLY WEATHER ROUNDUP
NATIONAL WEATHER SERVICE NORTH PLATTE NE
200 AM CDT THU MAY 26 2016

NOTE: "FAIR" INDICATES FEW OR NO CLOUDS BELOW 12,000 FEET WITH NO
SIGNIFICANT WEATHER AND/OR OBSTRUCTIONS TO VISIBILITY.

NOTE: STATIONS NOT REPORTING VARIABLES SUCH AS SKY/WEATHER OR
PRESSURE ARE PROVIDED BY RAWS AND APRS NETWORKS AND ARE NOT UNDER
NATIONAL WEATHER SERVICE QUALITY CONTROL.

...OBSERVATIONS IN AND NEAR THE EASTERN PANHANDLE OF NEBRASKA...

CITY           SKY/WX    TMP DP  RH WIND       PRES   REMARKS
PINE RIDGE     CLOUDY    43  38  82 CALM      29.90F
CHADRON        CLEAR     45  40  82 S3        29.91F
ALLIANCE       CLOUDY    44  42  93 NW5       29.91F
SIDNEY         MOCLDY    47  44  90 SW8       29.96F
CRESCENT LAKE    N/A     54  48  80 SE3         N/A
BIG SPRINGS      N/A     53  50  91 CALM        N/A
$$

...OBSERVATIONS IN NORTHERN NEBRASKA AND FAR SOUTHERN SOUTH DAKOTA...

CITY           SKY/WX    TMP DP  RH WIND       PRES   REMARKS
WINNER         FAIR      55  50  83 SW6       29.88R
VALENTINE      PTCLDY    51  46  83 CALM      29.90F
THEDFORD       PTCLDY    53  47  78 CALM      29.91F
AINSWORTH      CLEAR     50  47  91 S6        29.90F
O`NEILL        PTCLDY    57  52  84 SW3       29.89F
ORD            MOCLDY    56  52  86 CALM      29.87F
BROKEN BOW     CLOUDY    54  50  86 NW3       29.91R
BUTTE            N/A     56  52  86 CALM        N/A
CHAMBERS         N/A     58  52  80 CALM        N/A
EWING            N/A     61  55  79 CALM        N/A
$$

...OBSERVATIONS IN SOUTHWEST NEBRASKA AND FAR NORTHEAST COLORADO...

CITY           SKY/WX    TMP DP  RH WIND       PRES   REMARKS
WRAY           FAIR      50  46  87 CALM      29.94F
IMPERIAL       CLOUDY    53  49  86 NW3       29.92F
OGALLALA       CLEAR     50  47  90 W5        29.94R
NORTH PLATTE   CLOUDY    52  51  97 NW5       29.90F
MCCOOK         CLEAR     53  48  83 W3        29.88S
LEXINGTON      CLEAR     56  51  84 N7        29.87R
PAXTON           N/A     55  52  89 CALM        N/A
STAPLETON        N/A     55  51  85 CALM        N/A
GOTHENBURG       N/A     58  50  76 NW3         N/A
CALLAWAY         N/A     56  51  82 N8          N/A
$$

...OBSERVATIONS IN CENTRAL LINCOLN COUNTY AREA...

CITY           SKY/WX    TMP DP  RH WIND       PRES   REMARKS
N.P. AIRPORT   CLOUDY    52  51  97 NW5       29.90F
N.P. DOWNTOWN    N/A     55  52  90 CALM        N/A
N.P. SOUTHEAST   N/A     55  52  89 CALM        N/A
N.P. HILLCREST   N/A     56  50  81 N7          N/A
$$

...SOME OBSERVATIONS FROM AROUND THE REGION...

CITY           SKY/WX    TMP DP  RH WIND       PRES   REMARKS
DENVER         MOCLDY    50  42  74 N9        30.02F
LARAMIE        CLEAR     36  29  75 W5        30.08F WCI  32
CHEYENNE       CLEAR     41  34  76 W12       30.04S
SCOTTSBLUFF    CLOUDY    47  42  83 W6        29.94F
RAPID CITY     CLEAR     46  44  93 CALM      29.90S
BISMARCK       CLEAR     50  48  93 W6        29.80R
PIERRE         CLEAR     53  48  83 S5        29.83F
SIOUX FALLS    CLOUDY    60  56  86 SW5       29.80F
OMAHA          CLOUDY    64  57  78 NW12      29.79F THUNDER
GRAND ISLAND   CLOUDY    60  56  86 NE13      29.84F
KANSAS CITY    CLOUDY    74  56  53 NW5       29.85R
WICHITA        PTCLDY    73  70  90 S6        29.84S
OKLAHOMA CITY  CLOUDY    77  74  90 S13       29.87F
DALLAS         CLOUDY    79  72  79 S13       29.90F
AMARILLO       CLEAR     62  32  32 S9        29.91R
DODGE CITY     LGT RAIN  68  68 100 NE21G28   29.86F FOG
HAYS           CLEAR     52  48  87 E7        29.88F
GOODLAND       PTCLDY    49  46  90 E7        29.92F
$$




USA.gov is the U.S. government's official web portal to all federal, state and local government web resources and services.